VENESAT-1 (33414 NORAD) Tracking and Keplerian Element Data

This shows tracking and keplerian element data for the satellite.

Feedback or suggestion? Click here.




ElementValue
Catalog33414
NameVENESAT-1
Epoch Orbit4176
Epoch Day87.62894365
Epoch Year2020
RAAN1.1631
Inclination0.0465
Eccentricity0.0056399
Argument of Perigee232.1971
Mean Anonmoly49.1051
Mean Motion0.99268838
Decay Rate9E-07
L11 33414U 08055A 20087.62894365 .00000090 00000-0 00000+0 0 9991
L22 33414 0.0465 1.1631 0056399 232.1971 49.1051 0.99268838 41762

Live tracking and technical data element details for VENESAT-1 (NORAD 33414). VENESAT-1 can be tracked NOW for your location showing map with azimuth and elevation plus other details from your city location.

Track the satellite on the map from your city or location and see movement details for azimuth, elevation, latitude, longitude, range, height, and movement on the map or in text.







IsCatalogInMostPopularTable: catalog: 33414, numindb: 411
Update: records affected: 1



GetName: 33414 VENESAT-1

Hit Count: updated at: Mon, 21 Jun 2021 10:08:13 GMT